owner,sensor,date,latitude,longitude,vertical_datum,wind_speed,wind_to_direction,wind_speed_of_gust,qcFlag 
NDBC,ioos:station:wmo:42039:1,2017-10-01T00:50:00Z,28.7390,-86.0060,0.0,5.0,80.0,6.0,'1111122,1111122,1111122' 
NDBC,ioos:station:wmo:42039:1,2017-10-01T01:50:00Z,28.7390,-86.0060,0.0,9.0,100.0,11.0,'1111122,1111122,1111122' 
NDBC,ioos:station:wmo:42039:1,2017-10-01T02:50:00Z,28.7390,-86.0060,0.0,8.0,70.0,10.0,'1111122,1111122,1111122' 
NDBC,ioos:station:wmo:42039:1,2017-10-01T03:50:00Z,28.7390,-86.0060,0.0,9.0,80.0,12.0,'1111122,1111122,1111122' 
NDBC,ioos:station:wmo:42039:1,2017-10-01T04:50:00Z,28.7390,-86.0060,0.0,10.0,80.0,12.0,'1111122,1111122,1111122' 
NDBC,ioos:station:wmo:42039:1,2017-10-01T05:50:00Z,28.7390,-86.0060,0.0,10.0,70.0,12.0,'1111122,1111122,1111122' 
NDBC,ioos:station:wmo:42039:1,2017-10-01T06:50:00Z,28.7390,-86.0060,0.0,11.0,70.0,13.0,'1111122,1111122,1111122' 
NDBC,ioos:station:wmo:42039:1,2017-10-01T07:50:00Z,28.7390,-86.0060,0.0,10.0,70.0,12.0,'1111122,1111122,1111122' 
NDBC,ioos:station:wmo:42039:1,2017-10-01T08:50:00Z,28.7390,-86.0060,0.0,12.0,60.0,15.0,'1111122,1111122,1111122' 
NDBC,ioos:station:wmo:42039:1,2017-10-01T09:50:00Z,28.7390,-86.0060,0.0,12.0,50.0,15.0,'1111122,1111122,1111122' 
NDBC,ioos:station:wmo:42039:1,2017-10-01T10:50:00Z,28.7390,-86.0060,0.0,11.0,60.0,14.0,'1111122,1111122,1111122' 
NDBC,ioos:station:wmo:42039:1,2017-10-01T11:50:00Z,28.7390,-86.0060,0.0,13.0,50.0,15.0,'1111122,1111122,1111122' 
NDBC,ioos:station:wmo:42039:1,2017-10-01T12:50:00Z,28.7390,-86.0060,0.0,12.0,50.0,15.0,'1111122,1111122,1111122' 
NDBC,ioos:station:wmo:42039:1,2017-10-01T13:50:00Z,28.7390,-86.0060,0.0,13.0,50.0,15.0,'1111122,1111122,1111122' 
NDBC,ioos:station:wmo:42039:1,2017-10-01T14:50:00Z,28.7390,-86.0060,0.0,14.0,60.0,16.0,'1111122,1111122,1111122' 
NDBC,ioos:station:wmo:42039:1,2017-10-01T15:50:00Z,28.7390,-86.0060,0.0,14.0,60.0,17.0,'1111122,1111122,1111122' 
NDBC,ioos:station:wmo:42039:1,2017-10-01T16:50:00Z,28.7390,-86.0060,0.0,13.0,60.0,15.0,'1111122,1111122,1111122' 
NDBC,ioos:station:wmo:42039:1,2017-10-01T17:50:00Z,28.7390,-86.0060,0.0,12.0,60.0,14.0,'1111122,1111122,1111122' 
NDBC,ioos:station:wmo:42039:1,2017-10-01T18:50:00Z,28.7390,-86.0060,0.0,10.0,60.0,12.0,'1111122,1111122,1111122' 
NDBC,ioos:station:wmo:42039:1,2017-10-01T19:50:00Z,28.7390,-86.0060,0.0,8.0,140.0,11.0,'1111122,1111122,1111122' 
NDBC,ioos:station:wmo:42039:1,2017-10-01T20:50:00Z,28.7390,-86.0060,0.0,7.0,100.0,8.0,'1111122,1111122,1111122' 
NDBC,ioos:station:wmo:42039:1,2017-10-01T21:50:00Z,28.7390,-86.0060,0.0,9.0,100.0,11.0,'1111122,1111122,1111122' 
NDBC,ioos:station:wmo:42039:1,2017-10-01T22:50:00Z,28.7390,-86.0060,0.0,9.0,100.0,11.0,'1111122,1111122,1111122' 
NDBC,ioos:station:wmo:42039:1,2017-10-01T23:50:00Z,28.7390,-86.0060,0.0,9.0,110.0,11.0,'1111122,1111122,1111122' 
NDBC,ioos:station:wmo:42039:1,2017-10-02T00:50:00Z,28.7390,-86.0060,0.0,9.0,90.0,10.0,'1111122,1111122,1111122' 
NDBC,ioos:station:wmo:42039:1,2017-10-02T01:50:00Z,28.7390,-86.0060,0.0,10.0,80.0,12.0,'1111122,1111122,1111122' 
NDBC,ioos:station:wmo:42039:1,2017-10-02T02:50:00Z,28.7390,-86.0060,0.0,10.0,90.0,13.0,'1111122,1111122,1111122' 
NDBC,ioos:station:wmo:42039:1,2017-10-02T03:50:00Z,28.7390,-86.0060,0.0,11.0,80.0,14.0,'1111122,1111122,1111122' 
NDBC,ioos:station:wmo:42039:1,2017-10-02T04:50:00Z,28.7390,-86.0060,0.0,11.0,90.0,14.0,'1111122,1111122,1111122' 
NDBC,ioos:station:wmo:42039:1,2017-10-02T05:50:00Z,28.7390,-86.0060,0.0,12.0,80.0,15.0,'1111122,1111122,1111122' 
NDBC,ioos:station:wmo:42039:1,2017-10-02T06:50:00Z,28.7390,-86.0060,0.0,11.0,80.0,14.0,'1111122,1111122,1111122' 
NDBC,ioos:station:wmo:42039:1,2017-10-02T07:50:00Z,28.7390,-86.0060,0.0,11.0,100.0,13.0,'1111122,1111122,1111122' 
NDBC,ioos:station:wmo:42039:1,2017-10-02T08:50:00Z,28.7390,-86.0060,0.0,10.0,90.0,12.0,'1111122,1111122,1111122' 
NDBC,ioos:station:wmo:42039:1,2017-10-02T09:50:00Z,28.7390,-86.0060,0.0,11.0,100.0,14.0,'1111122,1111122,1111122' 
NDBC,ioos:station:wmo:42039:1,2017-10-02T10:50:00Z,28.7390,-86.0060,0.0,11.0,100.0,13.0,'1111122,1111122,1111122' 
NDBC,ioos:station:wmo:42039:1,2017-10-02T11:50:00Z,28.7390,-86.0060,0.0,11.0,100.0,13.0,'1111122,1111122,1111122' 
NDBC,ioos:station:wmo:42039:1,2017-10-02T12:50:00Z,28.7390,-86.0060,0.0,11.0,110.0,13.0,'1111122,1111122,1111122' 
NDBC,ioos:station:wmo:42039:1,2017-10-02T13:50:00Z,28.7390,-86.0060,0.0,11.0,110.0,13.0,'1111122,1111122,1111122' 
NDBC,ioos:station:wmo:42039:1,2017-10-02T14:50:00Z,28.7390,-86.0060,0.0,11.0,110.0,12.0,'1111122,1111122,1111122' 
NDBC,ioos:station:wmo:42039:1,2017-10-02T15:50:00Z,28.7390,-86.0060,0.0,10.0,110.0,12.0,'1111122,1111122,1111122' 
NDBC,ioos:station:wmo:42039:1,2017-10-02T16:50:00Z,28.7390,-86.0060,0.0,12.0,110.0,13.0,'1111122,1111122,1111122' 
NDBC,ioos:station:wmo:42039:1,2017-10-02T17:50:00Z,28.7390,-86.0060,0.0,12.0,100.0,14.0,'1111122,1111122,1111122' 
NDBC,ioos:station:wmo:42039:1,2017-10-02T18:50:00Z,28.7390,-86.0060,0.0,12.0,90.0,14.0,'1111122,1111122,1111122' 
NDBC,ioos:station:wmo:42039:1,2017-10-02T19:50:00Z,28.7390,-86.0060,0.0,11.0,90.0,13.0,'1111122,1111122,1111122' 
NDBC,ioos:station:wmo:42039:1,2017-10-02T20:50:00Z,28.7390,-86.0060,0.0,11.0,80.0,14.0,'1111122,1111122,1111122' 
NDBC,ioos:station:wmo:42039:1,2017-10-02T21:50:00Z,28.7390,-86.0060,0.0,11.0,80.0,13.0,'1111122,1111122,1111122' 
NDBC,ioos:station:wmo:42039:1,2017-10-02T22:50:00Z,28.7390,-86.0060,0.0,11.0,80.0,14.0,'1111122,1111122,1111122' 
NDBC,ioos:station:wmo:42039:1,2017-10-02T23:50:00Z,28.7390,-86.0060,0.0,12.0,90.0,14.0,'1111122,1111122,1111122' 
NDBC,ioos:station:wmo:42039:1,2017-10-03T00:50:00Z,28.7390,-86.0060,0.0,12.0,80.0,14.0,'1111122,1111122,1111122' 
NDBC,ioos:station:wmo:42039:1,2017-10-03T01:50:00Z,28.7390,-86.0060,0.0,12.0,90.0,14.0,'1111122,1111122,1111122' 
NDBC,ioos:station:wmo:42039:1,2017-10-03T02:50:00Z,28.7390,-86.0060,0.0,12.0,80.0,16.0,'1111122,1111122,1111122' 
NDBC,ioos:station:wmo:42039:1,2017-10-03T03:50:00Z,28.7390,-86.0060,0.0,12.0,80.0,15.0,'1111122,1111122,1111122' 
NDBC,ioos:station:wmo:42039:1,2017-10-03T04:50:00Z,28.7390,-86.0060,0.0,11.0,80.0,14.0,'1111122,1111122,1111122' 
NDBC,ioos:station:wmo:42039:1,2017-10-03T05:50:00Z,28.7390,-86.0060,0.0,12.0,90.0,15.0,'1111122,1111122,1111122' 
NDBC,ioos:station:wmo:42039:1,2017-10-03T06:50:00Z,28.7390,-86.0060,0.0,12.0,90.0,15.0,'1111122,1111122,1111122' 
NDBC,ioos:station:wmo:42039:1,2017-10-03T07:50:00Z,28.7390,-86.0060,0.0,12.0,90.0,15.0,'1111122,1111122,1111122' 
NDBC,ioos:station:wmo:42039:1,2017-10-03T08:50:00Z,28.7390,-86.0060,0.0,13.0,90.0,15.0,'1111122,1111122,1111122' 
NDBC,ioos:station:wmo:42039:1,2017-10-03T09:50:00Z,28.7390,-86.0060,0.0,12.0,80.0,15.0,'1111122,1111122,1111122' 
NDBC,ioos:station:wmo:42039:1,2017-10-03T10:50:00Z,28.7390,-86.0060,0.0,13.0,90.0,15.0,'1111122,1111122,1111122' 
NDBC,ioos:station:wmo:42039:1,2017-10-03T12:50:00Z,28.7390,-86.0060,0.0,12.0,80.0,15.0,'1111122,1111122,1111122' 
NDBC,ioos:station:wmo:42039:1,2017-10-03T13:50:00Z,28.7390,-86.0060,0.0,12.0,80.0,14.0,'1111122,1111122,1111122' 
NDBC,ioos:station:wmo:42039:1,2017-10-03T14:50:00Z,28.7390,-86.0060,0.0,12.0,80.0,14.0,'1111122,1111122,1111122' 
NDBC,ioos:station:wmo:42039:1,2017-10-03T15:50:00Z,28.7390,-86.0060,0.0,11.0,80.0,14.0,'1111122,1111122,1111122' 
NDBC,ioos:station:wmo:42039:1,2017-10-03T16:50:00Z,28.7390,-86.0060,0.0,11.0,80.0,13.0,'1111122,1111122,1111122' 
NDBC,ioos:station:wmo:42039:1,2017-10-03T17:50:00Z,28.7390,-86.0060,0.0,11.0,70.0,14.0,'1111122,1111122,1111122' 
NDBC,ioos:station:wmo:42039:1,2017-10-03T18:50:00Z,28.7390,-86.0060,0.0,12.0,70.0,14.0,'1111122,1111122,1111122' 
NDBC,ioos:station:wmo:42039:1,2017-10-03T19:50:00Z,28.7390,-86.0060,0.0,12.0,70.0,14.0,'1111122,1111122,1111122' 
NDBC,ioos:station:wmo:42039:1,2017-10-03T20:50:00Z,28.7390,-86.0060,0.0,12.0,60.0,14.0,'1111122,1111122,1111122' 
NDBC,ioos:station:wmo:42039:1,2017-10-03T21:50:00Z,28.7390,-86.0060,0.0,12.0,70.0,14.0,'1111122,1111122,1111122' 
NDBC,ioos:station:wmo:42039:1,2017-10-03T22:50:00Z,28.7390,-86.0060,0.0,11.0,60.0,13.0,'1111122,1111122,1111122' 
NDBC,ioos:station:wmo:42039:1,2017-10-03T23:50:00Z,28.7390,-86.0060,0.0,12.0,60.0,15.0,'1111122,1111122,1111122' 
NDBC,ioos:station:wmo:42039:1,2017-10-04T00:50:00Z,28.7390,-86.0060,0.0,12.0,70.0,14.0,'1111122,1111122,1111122' 
NDBC,ioos:station:wmo:42039:1,2017-10-04T01:50:00Z,28.7390,-86.0060,0.0,13.0,70.0,16.0,'1111122,1111122,1111122' 
NDBC,ioos:station:wmo:42039:1,2017-10-04T02:50:00Z,28.7390,-86.0060,0.0,13.0,70.0,16.0,'1111122,1111122,1111122' 
NDBC,ioos:station:wmo:42039:1,2017-10-04T03:50:00Z,28.7390,-86.0060,0.0,13.0,70.0,16.0,'1111122,1111122,1111122' 
NDBC,ioos:station:wmo:42039:1,2017-10-04T04:50:00Z,28.7390,-86.0060,0.0,14.0,70.0,17.0,'1111122,1111122,1111122' 
NDBC,ioos:station:wmo:42039:1,2017-10-04T05:50:00Z,28.7390,-86.0060,0.0,14.0,80.0,16.0,'1111122,1111122,1111122' 
NDBC,ioos:station:wmo:42039:1,2017-10-04T06:50:00Z,28.7390,-86.0060,0.0,13.0,80.0,17.0,'1111122,1111122,1111122' 
NDBC,ioos:station:wmo:42039:1,2017-10-04T07:50:00Z,28.7390,-86.0060,0.0,13.0,80.0,16.0,'1111122,1111122,1111122' 
NDBC,ioos:station:wmo:42039:1,2017-10-04T08:50:00Z,28.7390,-86.0060,0.0,12.0,80.0,14.0,'1111122,1111122,1111122' 
NDBC,ioos:station:wmo:42039:1,2017-10-04T10:50:00Z,28.7390,-86.0060,0.0,12.0,80.0,14.0,'1111122,1111122,1111122' 
NDBC,ioos:station:wmo:42039:1,2017-10-04T11:50:00Z,28.7390,-86.0060,0.0,13.0,80.0,15.0,'1111122,1111122,1111122' 
NDBC,ioos:station:wmo:42039:1,2017-10-04T12:50:00Z,28.7390,-86.0060,0.0,12.0,80.0,15.0,'1111122,1111122,1111122' 
NDBC,ioos:station:wmo:42039:1,2017-10-04T13:50:00Z,28.7390,-86.0060,0.0,12.0,80.0,14.0,'1111122,1111122,1111122' 
NDBC,ioos:station:wmo:42039:1,2017-10-04T14:50:00Z,28.7390,-86.0060,0.0,12.0,80.0,15.0,'1111122,1111122,1111122' 
NDBC,ioos:station:wmo:42039:1,2017-10-04T15:50:00Z,28.7390,-86.0060,0.0,12.0,80.0,14.0,'1111122,1111122,1111122' 
NDBC,ioos:station:wmo:42039:1,2017-10-04T16:50:00Z,28.7390,-86.0060,0.0,10.0,80.0,12.0,'1111122,1111122,1111122' 
NDBC,ioos:station:wmo:42039:1,2017-10-04T17:50:00Z,28.7390,-86.0060,0.0,11.0,70.0,14.0,'1111122,1111122,1111122' 
NDBC,ioos:station:wmo:42039:1,2017-10-04T18:50:00Z,28.7390,-86.0060,0.0,11.0,60.0,13.0,'1111122,1111122,1111122' 
NDBC,ioos:station:wmo:42039:1,2017-10-04T19:50:00Z,28.7390,-86.0060,0.0,11.0,60.0,13.0,'1111122,1111122,1111122' 
NDBC,ioos:station:wmo:42039:1,2017-10-04T20:50:00Z,28.7390,-86.0060,0.0,10.0,60.0,13.0,'1111122,1111122,1111122' 
NDBC,ioos:station:wmo:42039:1,2017-10-04T21:50:00Z,28.7390,-86.0060,0.0,10.0,60.0,13.0,'1111122,1111122,1111122' 
NDBC,ioos:station:wmo:42039:1,2017-10-04T22:50:00Z,28.7390,-86.0060,0.0,11.0,60.0,13.0,'1111122,1111122,1111122' 
NDBC,ioos:station:wmo:42039:1,2017-10-04T23:50:00Z,28.7390,-86.0060,0.0,11.0,60.0,13.0,'1111122,1111122,1111122' 
NDBC,ioos:station:wmo:42039:1,2017-10-05T00:50:00Z,28.7390,-86.0060,0.0,11.0,60.0,13.0,'1111122,1111122,1111122' 
NDBC,ioos:station:wmo:42039:1,2017-10-05T01:50:00Z,28.7390,-86.0060,0.0,11.0,50.0,13.0,'1111122,1111122,1111122' 
NDBC,ioos:station:wmo:42039:1,2017-10-05T02:50:00Z,28.7390,-86.0060,0.0,11.0,70.0,14.0,'1111122,1111122,1111122' 
NDBC,ioos:station:wmo:42039:1,2017-10-05T03:50:00Z,28.7390,-86.0060,0.0,12.0,70.0,13.0,'1111122,1111122,1111122' 
NDBC,ioos:station:wmo:42039:1,2017-10-05T04:50:00Z,28.7390,-86.0060,0.0,11.0,70.0,13.0,'1111122,1111122,1111122' 
NDBC,ioos:station:wmo:42039:1,2017-10-05T05:50:00Z,28.7390,-86.0060,0.0,11.0,70.0,14.0,'1111122,1111122,1111122' 
NDBC,ioos:station:wmo:42039:1,2017-10-05T06:50:00Z,28.7390,-86.0060,0.0,11.0,60.0,13.0,'1111122,1111122,1111122' 
NDBC,ioos:station:wmo:42039:1,2017-10-05T07:50:00Z,28.7390,-86.0060,0.0,11.0,70.0,13.0,'1111122,1111122,1111122' 
NDBC,ioos:station:wmo:42039:1,2017-10-05T08:50:00Z,28.7390,-86.0060,0.0,11.0,70.0,13.0,'1111122,1111122,1111122' 
NDBC,ioos:station:wmo:42039:1,2017-10-05T09:50:00Z,28.7390,-86.0060,0.0,11.0,70.0,13.0,'1111122,1111122,1111122' 
NDBC,ioos:station:wmo:42039:1,2017-10-05T10:50:00Z,28.7390,-86.0060,0.0,10.0,60.0,12.0,'1111122,1111122,1111122' 
NDBC,ioos:station:wmo:42039:1,2017-10-05T11:50:00Z,28.7390,-86.0060,0.0,10.0,50.0,12.0,'1111122,1111122,1111122' 
NDBC,ioos:station:wmo:42039:1,2017-10-05T12:50:00Z,28.7390,-86.0060,0.0,10.0,50.0,13.0,'1111122,1111122,1111122' 
NDBC,ioos:station:wmo:42039:1,2017-10-05T13:50:00Z,28.7390,-86.0060,0.0,10.0,50.0,12.0,'1111122,1111122,1111122' 
NDBC,ioos:station:wmo:42039:1,2017-10-05T14:50:00Z,28.7390,-86.0060,0.0,10.0,50.0,12.0,'1111122,1111122,1111122' 
NDBC,ioos:station:wmo:42039:1,2017-10-05T15:50:00Z,28.7390,-86.0060,0.0,10.0,60.0,12.0,'1111122,1111122,1111122' 
NDBC,ioos:station:wmo:42039:1,2017-10-05T16:50:00Z,28.7390,-86.0060,0.0,11.0,60.0,13.0,'1111122,1111122,1111122' 
NDBC,ioos:station:wmo:42039:1,2017-10-05T17:50:00Z,28.7390,-86.0060,0.0,10.0,60.0,12.0,'1111122,1111122,1111122' 
NDBC,ioos:station:wmo:42039:1,2017-10-05T18:50:00Z,28.7390,-86.0060,0.0,11.0,60.0,13.0,'1111122,1111122,1111122' 
NDBC,ioos:station:wmo:42039:1,2017-10-05T19:50:00Z,28.7390,-86.0060,0.0,12.0,60.0,14.0,'1111122,1111122,1111122' 
NDBC,ioos:station:wmo:42039:1,2017-10-05T20:50:00Z,28.7390,-86.0060,0.0,11.0,50.0,14.0,'1111122,1111122,1111122' 
NDBC,ioos:station:wmo:42039:1,2017-10-05T21:50:00Z,28.7390,-86.0060,0.0,12.0,60.0,14.0,'1111122,1111122,1111122' 
NDBC,ioos:station:wmo:42039:1,2017-10-05T22:50:00Z,28.7390,-86.0060,0.0,11.0,50.0,13.0,'1111122,1111122,1111122' 
NDBC,ioos:station:wmo:42039:1,2017-10-05T23:50:00Z,28.7390,-86.0060,0.0,11.0,50.0,13.0,'1111122,1111122,1111122' 
NDBC,ioos:station:wmo:42039:1,2017-10-06T00:50:00Z,28.7390,-86.0060,0.0,11.0,50.0,14.0,'1111122,1111122,1111122' 
NDBC,ioos:station:wmo:42039:1,2017-10-06T01:50:00Z,28.7390,-86.0060,0.0,13.0,60.0,15.0,'1111122,1111122,1111122' 
NDBC,ioos:station:wmo:42039:1,2017-10-06T02:50:00Z,28.7390,-86.0060,0.0,13.0,70.0,15.0,'1111122,1111122,1111122' 
NDBC,ioos:station:wmo:42039:1,2017-10-06T03:50:00Z,28.7390,-86.0060,0.0,12.0,60.0,15.0,'1111122,1111122,1111122' 
NDBC,ioos:station:wmo:42039:1,2017-10-06T04:50:00Z,28.7390,-86.0060,0.0,13.0,70.0,16.0,'1111122,1111122,1111122' 
NDBC,ioos:station:wmo:42039:1,2017-10-06T05:50:00Z,28.7390,-86.0060,0.0,13.0,80.0,16.0,'1111122,1111122,1111122' 
NDBC,ioos:station:wmo:42039:1,2017-10-06T06:50:00Z,28.7390,-86.0060,0.0,13.0,70.0,15.0,'1111122,1111122,1111122' 
NDBC,ioos:station:wmo:42039:1,2017-10-06T07:50:00Z,28.7390,-86.0060,0.0,13.0,80.0,16.0,'1111122,1111122,1111122' 
NDBC,ioos:station:wmo:42039:1,2017-10-06T08:50:00Z,28.7390,-86.0060,0.0,12.0,80.0,15.0,'1111122,1111122,1111122' 
NDBC,ioos:station:wmo:42039:1,2017-10-06T09:50:00Z,28.7390,-86.0060,0.0,12.0,80.0,14.0,'1111122,1111122,1111122' 
NDBC,ioos:station:wmo:42039:1,2017-10-06T10:50:00Z,28.7390,-86.0060,0.0,11.0,80.0,13.0,'1111122,1111122,1111122' 
NDBC,ioos:station:wmo:42039:1,2017-10-06T11:50:00Z,28.7390,-86.0060,0.0,11.0,80.0,13.0,'1111122,1111122,1111122' 
NDBC,ioos:station:wmo:42039:1,2017-10-06T12:50:00Z,28.7390,-86.0060,0.0,11.0,80.0,13.0,'1111122,1111122,1111122' 
NDBC,ioos:station:wmo:42039:1,2017-10-06T13:50:00Z,28.7390,-86.0060,0.0,10.0,80.0,12.0,'1111122,1111122,1111122' 
NDBC,ioos:station:wmo:42039:1,2017-10-06T14:50:00Z,28.7390,-86.0060,0.0,10.0,80.0,12.0,'1111122,1111122,1111122' 
NDBC,ioos:station:wmo:42039:1,2017-10-06T15:50:00Z,28.7390,-86.0060,0.0,10.0,80.0,12.0,'1111122,1111122,1111122' 
NDBC,ioos:station:wmo:42039:1,2017-10-06T16:50:00Z,28.7390,-86.0060,0.0,10.0,80.0,11.0,'1111122,1111122,1111122' 
NDBC,ioos:station:wmo:42039:1,2017-10-06T17:50:00Z,28.7390,-86.0060,0.0,9.0,80.0,10.0,'1111122,1111122,1111122' 
NDBC,ioos:station:wmo:42039:1,2017-10-06T18:50:00Z,28.7390,-86.0060,0.0,10.0,80.0,11.0,'1111122,1111122,1111122' 
NDBC,ioos:station:wmo:42039:1,2017-10-06T19:50:00Z,28.7390,-86.0060,0.0,9.0,90.0,11.0,'1111122,1111122,1111122' 
NDBC,ioos:station:wmo:42039:1,2017-10-06T20:50:00Z,28.7390,-86.0060,0.0,9.0,80.0,11.0,'1111122,1111122,1111122' 
NDBC,ioos:station:wmo:42039:1,2017-10-06T21:50:00Z,28.7390,-86.0060,0.0,9.0,90.0,11.0,'1111122,1111122,1111122' 
NDBC,ioos:station:wmo:42039:1,2017-10-06T22:50:00Z,28.7390,-86.0060,0.0,9.0,90.0,10.0,'1111122,1111122,1111122' 
NDBC,ioos:station:wmo:42039:1,2017-10-06T23:50:00Z,28.7390,-86.0060,0.0,9.0,80.0,11.0,'1111122,1111122,1111122' 
NDBC,ioos:station:wmo:42039:1,2017-10-07T00:50:00Z,28.7390,-86.0060,0.0,9.0,90.0,10.0,'1111122,1111122,1111122' 
NDBC,ioos:station:wmo:42039:1,2017-10-07T01:50:00Z,28.7390,-86.0060,0.0,8.0,80.0,10.0,'1111122,1111122,1111122' 
NDBC,ioos:station:wmo:42039:1,2017-10-07T02:50:00Z,28.7390,-86.0060,0.0,9.0,90.0,10.0,'1111122,1111122,1111122' 
NDBC,ioos:station:wmo:42039:1,2017-10-07T03:50:00Z,28.7390,-86.0060,0.0,8.0,90.0,10.0,'1111122,1111122,1111122' 
NDBC,ioos:station:wmo:42039:1,2017-10-07T04:50:00Z,28.7390,-86.0060,0.0,9.0,90.0,11.0,'1111122,1111122,1111122' 
NDBC,ioos:station:wmo:42039:1,2017-10-07T05:50:00Z,28.7390,-86.0060,0.0,10.0,90.0,12.0,'1111122,1111122,1111122' 
NDBC,ioos:station:wmo:42039:1,2017-10-07T06:50:00Z,28.7390,-86.0060,0.0,10.0,100.0,11.0,'1111122,1111122,1111122' 
NDBC,ioos:station:wmo:42039:1,2017-10-07T07:50:00Z,28.7390,-86.0060,0.0,9.0,110.0,10.0,'1111122,1111122,1111122' 
NDBC,ioos:station:wmo:42039:1,2017-10-07T08:50:00Z,28.7390,-86.0060,0.0,9.0,110.0,11.0,'1111122,1111122,1111122' 
NDBC,ioos:station:wmo:42039:1,2017-10-07T09:50:00Z,28.7390,-86.0060,0.0,9.0,110.0,11.0,'1111122,1111122,1111122' 
NDBC,ioos:station:wmo:42039:1,2017-10-07T10:50:00Z,28.7390,-86.0060,0.0,10.0,110.0,11.0,'1111122,1111122,1111122' 
NDBC,ioos:station:wmo:42039:1,2017-10-07T11:50:00Z,28.7390,-86.0060,0.0,11.0,110.0,13.0,'1111122,1111122,1111122' 
NDBC,ioos:station:wmo:42039:1,2017-10-07T12:50:00Z,28.7390,-86.0060,0.0,11.0,110.0,13.0,'1111122,1111122,1111122' 
NDBC,ioos:station:wmo:42039:1,2017-10-07T13:50:00Z,28.7390,-86.0060,0.0,12.0,110.0,15.0,'1111122,1111122,1111122' 
NDBC,ioos:station:wmo:42039:1,2017-10-07T14:50:00Z,28.7390,-86.0060,0.0,11.0,120.0,13.0,'1111122,1111122,1111122' 
NDBC,ioos:station:wmo:42039:1,2017-10-07T15:50:00Z,28.7390,-86.0060,0.0,11.0,120.0,14.0,'1111122,1111122,1111122' 
NDBC,ioos:station:wmo:42039:1,2017-10-07T16:50:00Z,28.7390,-86.0060,0.0,11.0,120.0,14.0,'1111122,1111122,1111122' 
NDBC,ioos:station:wmo:42039:1,2017-10-07T17:50:00Z,28.7390,-86.0060,0.0,11.0,120.0,14.0,'1111122,1111122,1111122' 
NDBC,ioos:station:wmo:42039:1,2017-10-07T18:50:00Z,28.7390,-86.0060,0.0,12.0,130.0,14.0,'1111122,1111122,1111122' 
NDBC,ioos:station:wmo:42039:1,2017-10-07T19:50:00Z,28.7390,-86.0060,0.0,13.0,130.0,15.0,'1111122,1111122,1111122' 
NDBC,ioos:station:wmo:42039:1,2017-10-07T20:50:00Z,28.7390,-86.0060,0.0,12.0,130.0,15.0,'1111122,1111122,1111122' 
NDBC,ioos:station:wmo:42039:1,2017-10-07T21:50:00Z,28.7390,-86.0060,0.0,13.0,130.0,15.0,'1111122,1111122,1111122' 
NDBC,ioos:station:wmo:42039:1,2017-10-07T22:50:00Z,28.7390,-86.0060,0.0,12.0,130.0,15.0,'1111122,1111122,1111122' 
NDBC,ioos:station:wmo:42039:1,2017-10-07T23:50:00Z,28.7390,-86.0060,0.0,14.0,140.0,18.0,'1111122,1111122,1111122' 
NDBC,ioos:station:wmo:42039:1,2017-10-08T00:50:00Z,28.7390,-86.0060,0.0,12.0,140.0,15.0,'1111122,1111122,1111122' 
NDBC,ioos:station:wmo:42039:1,2017-10-08T01:50:00Z,28.7390,-86.0060,0.0,12.0,150.0,15.0,'1111122,1111122,1111122' 
NDBC,ioos:station:wmo:42039:1,2017-10-08T02:50:00Z,28.7390,-86.0060,0.0,13.0,140.0,16.0,'1111122,1111122,1111122' 
NDBC,ioos:station:wmo:42039:1,2017-10-08T03:50:00Z,28.7390,-86.0060,0.0,14.0,150.0,17.0,'1111122,1111122,1111122' 
NDBC,ioos:station:wmo:42039:1,2017-10-08T04:50:00Z,28.7390,-86.0060,0.0,13.0,150.0,16.0,'1111122,1111122,1111122' 
NDBC,ioos:station:wmo:42039:1,2017-10-08T05:50:00Z,28.7390,-86.0060,0.0,13.0,170.0,18.0,'1111122,1111122,1111122' 
NDBC,ioos:station:wmo:42039:1,2017-10-08T06:50:00Z,28.7390,-86.0060,0.0,13.0,160.0,16.0,'1111122,1111122,1111122' 
NDBC,ioos:station:wmo:42039:1,2017-10-08T07:50:00Z,28.7390,-86.0060,0.0,13.0,170.0,16.0,'1111122,1111122,1111122' 
NDBC,ioos:station:wmo:42039:1,2017-10-08T08:50:00Z,28.7390,-86.0060,0.0,13.0,170.0,16.0,'1111122,1111122,1111122' 
NDBC,ioos:station:wmo:42039:1,2017-10-08T09:50:00Z,28.7390,-86.0060,0.0,12.0,170.0,15.0,'1111122,1111122,1111122' 
NDBC,ioos:station:wmo:42039:1,2017-10-08T10:50:00Z,28.7390,-86.0060,0.0,13.0,180.0,15.0,'1111122,1111122,1111122' 
NDBC,ioos:station:wmo:42039:1,2017-10-08T11:50:00Z,28.7390,-86.0060,0.0,12.0,180.0,15.0,'1111122,1111122,1111122' 
NDBC,ioos:station:wmo:42039:1,2017-10-08T12:50:00Z,28.7390,-86.0060,0.0,12.0,190.0,14.0,'1111122,1111122,1111122' 
NDBC,ioos:station:wmo:42039:1,2017-10-08T13:50:00Z,28.7390,-86.0060,0.0,11.0,190.0,14.0,'1111122,1111122,1111122' 
NDBC,ioos:station:wmo:42039:1,2017-10-08T14:50:00Z,28.7390,-86.0060,0.0,10.0,190.0,12.0,'1111122,1111122,1111122' 
NDBC,ioos:station:wmo:42039:1,2017-10-08T15:50:00Z,28.7390,-86.0060,0.0,9.0,190.0,11.0,'1111122,1111122,1111122' 
NDBC,ioos:station:wmo:42039:1,2017-10-08T16:50:00Z,28.7390,-86.0060,0.0,10.0,190.0,13.0,'1111122,1111122,1111122' 
NDBC,ioos:station:wmo:42039:1,2017-10-08T17:50:00Z,28.7390,-86.0060,0.0,9.0,190.0,11.0,'1111122,1111122,1111122' 
NDBC,ioos:station:wmo:42039:1,2017-10-08T18:50:00Z,28.7390,-86.0060,0.0,9.0,200.0,12.0,'1111122,1111122,1111122' 
NDBC,ioos:station:wmo:42039:1,2017-10-08T19:50:00Z,28.7390,-86.0060,0.0,10.0,190.0,11.0,'1111122,1111122,1111122' 
NDBC,ioos:station:wmo:42039:1,2017-10-08T20:50:00Z,28.7390,-86.0060,0.0,9.0,200.0,11.0,'1111122,1111122,1111122' 
NDBC,ioos:station:wmo:42039:1,2017-10-08T21:50:00Z,28.7390,-86.0060,0.0,8.0,200.0,10.0,'1111122,1111122,1111122' 
NDBC,ioos:station:wmo:42039:1,2017-10-08T22:50:00Z,28.7390,-86.0060,0.0,9.0,200.0,11.0,'1111122,1111122,1111122' 
NDBC,ioos:station:wmo:42039:1,2017-10-08T23:50:00Z,28.7390,-86.0060,0.0,8.0,200.0,10.0,'1111122,1111122,1111122' 
NDBC,ioos:station:wmo:42039:1,2017-10-09T00:50:00Z,28.7390,-86.0060,0.0,7.0,190.0,9.0,'1111122,1111122,1111122' 
NDBC,ioos:station:wmo:42039:1,2017-10-09T01:50:00Z,28.7390,-86.0060,0.0,7.0,180.0,9.0,'1111122,1111122,1111122' 
NDBC,ioos:station:wmo:42039:1,2017-10-09T02:50:00Z,28.7390,-86.0060,0.0,7.0,180.0,9.0,'1111122,1111122,1111122' 
NDBC,ioos:station:wmo:42039:1,2017-10-09T03:50:00Z,28.7390,-86.0060,0.0,7.0,190.0,8.0,'1111122,1111122,1111122' 
NDBC,ioos:station:wmo:42039:1,2017-10-09T04:50:00Z,28.7390,-86.0060,0.0,8.0,180.0,9.0,'1111122,1111122,1111122' 
NDBC,ioos:station:wmo:42039:1,2017-10-09T05:50:00Z,28.7390,-86.0060,0.0,8.0,180.0,9.0,'1111122,1111122,1111122' 
NDBC,ioos:station:wmo:42039:1,2017-10-09T06:50:00Z,28.7390,-86.0060,0.0,8.0,180.0,9.0,'1111122,1111122,1111122' 
NDBC,ioos:station:wmo:42039:1,2017-10-09T07:50:00Z,28.7390,-86.0060,0.0,8.0,180.0,9.0,'1111122,1111122,1111122' 
NDBC,ioos:station:wmo:42039:1,2017-10-09T08:50:00Z,28.7390,-86.0060,0.0,8.0,180.0,10.0,'1111122,1111122,1111122' 
NDBC,ioos:station:wmo:42039:1,2017-10-09T09:50:00Z,28.7390,-86.0060,0.0,7.0,180.0,8.0,'1111122,1111122,1111122' 
NDBC,ioos:station:wmo:42039:1,2017-10-09T10:50:00Z,28.7390,-86.0060,0.0,7.0,180.0,8.0,'1111122,1111122,1111122' 
NDBC,ioos:station:wmo:42039:1,2017-10-09T11:50:00Z,28.7390,-86.0060,0.0,6.0,190.0,6.0,'1111122,1111122,1111122' 
NDBC,ioos:station:wmo:42039:1,2017-10-09T12:50:00Z,28.7390,-86.0060,0.0,5.0,180.0,6.0,'1111122,1111122,1111122' 
NDBC,ioos:station:wmo:42039:1,2017-10-09T13:50:00Z,28.7390,-86.0060,0.0,5.0,160.0,6.0,'1111122,1111122,1111122' 
NDBC,ioos:station:wmo:42039:1,2017-10-09T14:50:00Z,28.7390,-86.0060,0.0,5.0,170.0,6.0,'1111122,1111122,1111122' 
NDBC,ioos:station:wmo:42039:1,2017-10-09T15:50:00Z,28.7390,-86.0060,0.0,5.0,160.0,5.0,'1111122,1111122,1111122' 
NDBC,ioos:station:wmo:42039:1,2017-10-09T16:50:00Z,28.7390,-86.0060,0.0,3.0,150.0,4.0,'1111122,1111122,1111122' 
NDBC,ioos:station:wmo:42039:1,2017-10-09T17:50:00Z,28.7390,-86.0060,0.0,4.0,140.0,5.0,'1111122,1111122,1111122' 
NDBC,ioos:station:wmo:42039:1,2017-10-09T18:50:00Z,28.7390,-86.0060,0.0,5.0,140.0,6.0,'1111122,1111122,1111122' 